New Bedford, MA

5:56 AM EDT on May 21, 2018 (GMT -0400)
New Bedford Regional

Weather History for KEWB - April, 2014

Change the Weather History Date:

Monday, April 7, 2014

  Actual Average Record
Temperature  
Mean Temperature 42 °F -  
Max Temperature 57 °F 51 °F 71 °F (1991)
Min Temperature 30 °F 37 °F 16 °F (1982)
Degree Days  
Heating Degree Days 22    
Moisture  
Dew Point 33 °F    
Average Humidity 66    
Maximum Humidity 96    
Minimum Humidity 31    
Precipitation  
Precipitation 0.11 in - - ()
Sea Level Pressure  
Sea Level Pressure 30.12 in    
Wind  
Wind Speed 5 mph (SE)    
Max Wind Speed 17 mph    
Max Gust Speed 24 mph    
Visibility 9 miles    
Events Rain    
Averages and records for this station are not official NWS values.
T = Trace of Precipitation, MM = Missing Value Source: NWS Daily Summary

Daily Weather History Graph

Daily Weather History Graph

Search for Another Location

Airport or City:

Astronomy

Apr. 07, 2014 Rise Set
Actual Time 6:16 AM EDT 7:15 PM EDT
Civil Twilight 5:48 AM EDT 7:44 PM EDT
Nautical Twilight 5:14 AM EDT 8:17 PM EDT
Astronomical Twilight 4:39 AM EDT 8:53 PM EDT
Moon 12:07 PM EDT (4/7) 1:53 AM EDT (4/7)
Length of Visible Light 13h 55m
Length of Day
12h 58m
First Quarter, 53% of the Moon is Illuminated
Apr 7
First Quarter
Apr 15
Full
Apr 22
Last Quarter
Apr 29
New
May 6
First Quarter

Hourly Weather History & Observations

Time (EDT) Temp. Windchill Dew Point Humidity Pressure Visibility Wind Dir Wind Speed Gust Speed Precip Events Conditions
12:53 AM 36.0 °F - 30.0 °F 79% 30.18 in 10.0 mi Calm Calm - N/A   Clear
1:53 AM 35.1 °F - 30.0 °F 82% 30.19 in 10.0 mi Calm Calm - N/A   Clear
2:53 AM 36.0 °F 33.3 °F 30.0 °F 79% 30.19 in 10.0 mi South 3.5 mph - N/A   Clear
3:53 AM 36.0 °F - 28.0 °F 73% 30.19 in 10.0 mi Calm Calm - N/A   Clear
4:53 AM 34.0 °F - 28.9 °F 82% 30.19 in 10.0 mi Calm Calm - N/A   Clear
5:53 AM 30.9 °F - 28.0 °F 89% 30.20 in 10.0 mi Calm Calm - N/A   Clear
6:53 AM 30.9 °F - 30.0 °F 96% 30.22 in 10.0 mi Calm Calm - N/A   Clear
7:53 AM 39.9 °F - 33.1 °F 77% 30.23 in 10.0 mi Calm Calm - N/A   Clear
8:53 AM 50.0 °F - 33.1 °F 52% 30.23 in 10.0 mi Calm Calm - N/A   Clear
9:53 AM 55.9 °F - 26.1 °F 32% 30.23 in - SE 8.1 mph - N/A   Clear
10:53 AM 54.0 °F - 30.0 °F 40% 30.22 in - SE 8.1 mph - N/A   Clear
11:53 AM 54.0 °F - 27.0 °F 35% 30.24 in 10.0 mi South 12.7 mph - N/A   Clear
12:53 PM 54.0 °F - 28.0 °F 37% 30.23 in 10.0 mi South 13.8 mph - N/A   Clear
1:53 PM 53.1 °F - 23.0 °F 31% 30.20 in 10.0 mi SSW 10.4 mph - N/A   Unknown
2:53 PM 52.0 °F - 23.0 °F 32% 30.17 in 10.0 mi SSE 12.7 mph - N/A   Clear
3:53 PM 50.0 °F - 30.2 °F 47% 30.15 in 10.0 mi South 9.2 mph - N/A   Clear
4:53 PM 48.9 °F - 33.1 °F 54% 30.13 in 10.0 mi SSE 11.5 mph - N/A   Mostly Cloudy
5:53 PM 48.0 °F - 34.0 °F 58% 30.09 in 10.0 mi ESE 8.1 mph - N/A   Mostly Cloudy
6:53 PM 46.9 °F - 30.9 °F 54% 30.09 in 10.0 mi East 8.1 mph - N/A   Overcast
7:53 PM 48.0 °F - 26.1 °F 42% 30.07 in 10.0 mi ESE 9.2 mph - N/A   Overcast
8:53 PM 46.0 °F 41.0 °F 37.9 °F 73% 30.04 in 10.0 mi ESE 10.4 mph - 0.00 in Rain Light Rain
9:53 PM 46.9 °F - 42.1 °F 83% 29.99 in 10.0 mi ESE 12.7 mph - 0.00 in Rain Light Rain
10:29 PM 46.0 °F 39.6 °F 43.0 °F 89% 29.96 in 4.0 mi ESE 15.0 mph - 0.02 in Rain Light Rain
10:35 PM 46.0 °F 39.0 °F 43.0 °F 89% 29.95 in 3.0 mi SE 17.3 mph 24.2 mph 0.03 in Rain Light Rain
10:46 PM 46.0 °F 39.9 °F 44.1 °F 93% 29.95 in 4.0 mi ESE 13.8 mph 23.0 mph 0.05 in Rain Rain
10:53 PM 46.0 °F 39.6 °F 44.1 °F 93% 29.95 in 5.0 mi SE 15.0 mph - 0.05 in Rain Light Rain
11:53 PM 46.0 °F 41.4 °F 45.0 °F 96% 29.88 in 3.0 mi East 9.2 mph - 0.06 in Rain Rain